{"data":{"norad_id":55598,"intl_designator":"2023-020AF","name":"STARLINK-5756","alt_names":[],"object_type":"PAYLOAD","status":"ACTIVE","operator":null,"country":"US","launch_date":"2023-02-12","launch_site_code":"AFETR","launch_vehicle":null,"mission":null,"orbit_class":"UNKNOWN","rcs_meters":null,"size_class":null,"mass_kg":null,"dimensions":null,"purposes":["comms"],"wikipedia_slug":null,"has_3d_model":false,"image_url":null,"decayed_at":null,"tle_current":{"epoch":"2026-05-25T02:25:17.150016Z","epoch_age_seconds":76810,"freshness":"FRESH","line1":"1 55598U 23020AF  26145.10089294 -.00000783  00000+0 -18923-4 0  9996","line2":"2 55598  43.0040 282.8358 0002520 286.7431  73.3144 15.27573606180723","mean_motion":15.27573606,"eccentricity":0.000252,"inclination_deg":43.004,"raan_deg":282.8358,"arg_perigee_deg":286.7431,"mean_anomaly_deg":73.3144,"bstar":-1.8923e-5,"rev_number":18072,"period_min":94.267143288151,"perigee_km":481.33921832167,"apogee_km":484.79726576366,"semimajor_km":6861.2052420427,"source":"CELESTRAK","updated_at":"2026-05-25T13:38:17.840738Z"}}}